KK4OHF Weather Reports


time (UTC)temp
F
wind
direction
speed
knots
gust
knots
rain 1hr
in
rain 24hr
in
rain mn
in
humidity
%
barometer
mb
20260506153505 74 332 0.9 2.6 0.00 0.00 0.00 75 1013.3
20260506153005 73 166 1.7 5.2 0.00 0.00 0.00 75 1013.3
20260506152504 74 258 1.7 2.6 0.00 0.00 0.00 75 1013.3
20260506151505 73 209 1.7 7.8 0.00 0.00 0.00 77 1013.3
20260506151006 71 173 1.7 6.1 0.00 0.00 0.00 79 1013.3
20260506150505 71 19 1.7 6.1 0.00 0.00 0.00 80 1013.3
20260506150006 70 147 1.7 10.4 0.00 0.00 0.00 80 1013.3
20260506145505 70 290 0.9 5.2 0.00 0.00 0.00 80 1013.3
20260506145005 70 218 1.7 5.2 0.00 0.00 0.00 80 1013.3
20260506144505 70 223 1.7 4.3 0.00 0.00 0.00 80 1013.3
20260506144005 70 265 1.7 7.8 0.00 0.00 0.00 80 1013.3
20260506143505 70 246 1.7 7.8 0.00 0.00 0.00 80 1013.3
20260506143005 70 213 2.6 7.8 0.00 0.00 0.00 79 1013.3
20260506142505 71 273 0.9 5.2 0.00 0.00 0.00 78 1013.3
20260506142006 71 268 0.9 6.1 0.00 0.00 0.00 77 1013.3
20260506141005 71 161 1.7 6.1 0.00 0.00 0.00 77 1013.3
20260506140505 70 223 0.9 5.2 0.00 0.00 0.00 77 1013.3
20260506140005 70 242 0.9 4.3 0.00 0.00 0.00 77 1013.3
20260506135504 70 246 1.7 5.2 0.00 0.00 0.00 77 1013.3
20260506135005 70 270 2.6 8.7 0.00 0.00 0.00 77 1013.3
20260506134505 69 200 1.7 7.0 0.00 0.00 0.00 78 1013.3
20260506134005 70 252 1.7 6.1 0.00 0.00 0.00 78 1013.3
20260506133505 69 243 2.6 7.8 0.00 0.00 0.00 79 1013.3
20260506133005 69 250 0.9 4.3 0.00 0.00 0.00 80 1013.3
20260506132505 69 215 1.7 5.2 0.00 0.00 0.00 80 1013.3
20260506132005 69 223 0.0 5.2 0.00 0.00 0.00 81 1013.3
20260506131006 69 85 0.9 7.0 0.00 0.00 0.00 82 1013.3
20260506130505 68 17 0.9 2.6 0.00 0.00 0.00 82 1013.3
20260506130006 68 112 0.9 2.6 0.00 0.00 0.00 83 1013.3
20260506125505 68 252 0.0 2.6 0.00 0.00 0.00 83 1013.3
20260506125005 68 140 0.9 2.6 0.00 0.00 0.00 84 1013.3
20260506124505 68 244 0.9 2.6 0.00 0.00 0.00 85 1013.3
20260506124005 67 191 0.9 2.6 0.00 0.00 0.00 86 1013.3
20260506123506 67 242 0.0 2.6 0.00 0.00 0.00 86 1013.3
20260506122505 67 242 0.9 4.3 0.00 0.00 0.00 86 1013.3
20260506122005 67 288 0.0 1.7 0.00 0.00 0.00 86 1013.3
20260506121504 67 8 0.0 0.9 0.00 0.00 0.00 86 1013.3
20260506121004 67 201 0.0 1.7 0.00 0.00 0.00 86 1013.3
20260506120505 66 227 0.0 2.6 0.00 0.00 0.00 86 1013.3
20260506120006 66 85 0.0 2.6 0.00 0.00 0.00 86 1012.3
20260506115506 66 84 0.0 1.7 0.00 0.00 0.00 86 1012.3
20260506115006 66 113 0.9 2.6 0.00 0.00 0.00 86 1012.3
20260506114504 66 157 0.9 2.6 0.00 0.00 0.00 86 1012.3
20260506114006 66 186 0.9 1.7 0.00 0.00 0.00 86 1012.3
20260506113505 66 234 0.9 1.7 0.00 0.00 0.00 86 1012.3
20260506113005 66 231 0.0 1.7 0.00 0.00 0.00 86 1012.3
20260506112504 66 155 0.0 1.7 0.00 0.00 0.00 87 1012.3
20260506112005 66 204 0.9 4.3 0.00 0.00 0.00 87 1012.3
20260506111505 66 69 0.0 2.6 0.00 0.00 0.00 87 1012.3
20260506111005 65 217 0.0 1.7 0.00 0.00 0.00 87 1012.3
20260506110005 65 162 0.0 2.6 0.00 0.00 0.00 87 1012.3
20260506105505 65 243 0.0 0.9 0.00 0.00 0.00 87 1012.3
20260506105005 65 202 0.0 0.0 0.00 0.00 0.00 87 1012.3
20260506104505 65 187 0.0 0.9 0.00 0.00 0.00 87 1012.3
20260506104005 65 211 0.0 0.9 0.00 0.00 0.00 87 1012.3
20260506103505 65 259 0.0 0.0 0.00 0.00 0.00 87 1012.3
20260506103005 65 270 0.0 1.7 0.00 0.00 0.00 87 1012.3
20260506101505 65 135 0.9 2.6 0.00 0.00 0.00 87 1011.6
20260506101005 65 159 0.0 0.9 0.00 0.00 0.00 87 1011.6
20260506100005 65 222 0.0 0.9 0.00 0.00 0.00 86 1011.6
20260506095505 65 232 0.0 1.7 0.00 0.00 0.00 86 1011.6
20260506094505 65 234 0.0 0.9 0.00 0.00 0.00 86 1011.6
20260506094005 65 215 0.0 1.7 0.00 0.00 0.00 86 1011.6
20260506093505 65 201 0.0 1.7 0.00 0.00 0.00 86 1011.6
20260506093006 65 211 0.0 0.9 0.00 0.00 0.00 85 1011.6
20260506092005 65 197 0.0 0.9 0.00 0.00 0.00 85 1011.6
20260506091505 65 209 0.0 2.6 0.00 0.00 0.00 85 1011.6
20260506091006 65 161 0.0 2.6 0.00 0.00 0.00 85 1011.5
20260506090505 65 179 0.9 1.7 0.00 0.00 0.00 85 1011.5
20260506090006 65 353 0.0 1.7 0.00 0.00 0.00 85 1011.5
20260506085506 65 261 0.0 0.9 0.00 0.00 0.00 85 1011.5
20260506084005 64 244 0.0 0.0 0.00 0.00 0.00 85 1011.5
20260506083504 64 119 0.0 0.0 0.00 0.00 0.00 85 1011.5
20260506083006 63 281 0.0 0.0 0.00 0.00 0.00 86 1011.5
20260506082506 63 186 0.0 0.0 0.00 0.00 0.00 86 1011.5
20260506082006 62 252 0.0 0.0 0.00 0.00 0.00 85 1011.6
20260506081505 62 108 0.0 0.0 0.00 0.00 0.00 85 1011.6
20260506080505 62 155 0.0 0.0 0.00 0.00 0.00 85 1011.6
20260506073506 61 142 0.0 0.0 0.00 0.00 0.00 84 1011.6
20260506073005 61 156 0.0 0.0 0.00 0.00 0.00 83 1011.6
20260506072505 61 156 0.0 0.0 0.00 0.00 0.00 82 1011.6
20260506071007 63 154 0.0 0.0 0.00 0.00 0.00 83 1012.5
20260506062505 62 121 0.0 0.0 0.00 0.00 0.00 79 1012.5
20260506062005 62 121 0.0 0.0 0.00 0.00 0.00 79 1012.5
20260506061505 62 121 0.0 0.0 0.00 0.00 0.00 77 1012.5
20260506061006 62 121 0.0 0.0 0.00 0.00 0.00 77 1012.5
20260506060505 63 121 0.0 0.0 0.00 0.00 0.00 76 1012.5
20260506050505 66 188 0.0 0.9 0.00 0.00 0.00 66 1012.1
20260506045005 66 179 0.0 2.6 0.00 0.00 0.00 64 1012.6
20260506044005 66 132 0.9 2.6 0.00 0.00 0.00 63 1012.6
20260506043506 67 118 0.9 1.7 0.00 0.00 0.00 62 1012.6
20260506043005 67 159 0.9 1.7 0.00 0.00 0.00 62 1012.6
20260506042505 67 134 0.0 0.0 0.00 0.00 0.00 61 1012.6
20260506042006 67 153 0.0 0.9 0.00 0.00 0.00 60 1012.6
20260506041506 67 224 0.0 0.9 0.00 0.00 0.00 60 1012.6
20260506041005 67 191 0.0 1.7 0.00 0.00 0.00 60 1012.6
20260506040506 68 138 0.0 1.7 0.00 0.00 0.00 59 1012.6
20260506035506 68 154 0.9 2.6 0.00 0.00 0.00 58 1012.6
20260506035005 68 169 0.9 5.2 0.00 0.00 0.00 58 1012.6
20260506034506 68 125 1.7 5.2 0.00 0.00 0.00 58 1012.6
20260506034005 69 163 1.7 2.6 0.00 0.00 0.00 57 1012.6
20260506033505 68 137 1.7 4.3 0.00 0.00 0.00 57 1012.6
20260506033005 68 199 0.9 4.3 0.00 0.00 0.00 57 1012.6
20260506032005 68 128 0.9 2.6 0.00 0.00 0.00 57 1012.6
20260506031506 68 128 0.0 1.7 0.00 0.00 0.00 56 1012.6
20260506030505 69 142 0.0 2.6 0.00 0.00 0.00 56 1012.6
20260506030006 69 100 0.9 2.6 0.00 0.00 0.00 55 1012.6
20260506025505 69 132 0.9 1.7 0.00 0.00 0.00 55 1012.6
20260506025005 69 123 0.9 4.3 0.00 0.00 0.00 54 1012.6
20260506024505 69 139 1.7 2.6 0.00 0.00 0.00 54 1012.6
20260506023006 69 123 0.9 4.3 0.00 0.00 0.00 53 1012.1
20260506022505 69 182 0.9 4.3 0.00 0.00 0.00 53 1012.1
20260506021505 69 161 0.9 2.6 0.00 0.00 0.00 54 1012.1
20260506020505 69 169 1.7 2.6 0.00 0.00 0.00 53 1012.1
20260506020005 70 151 1.7 4.3 0.00 0.00 0.00 53 1012.1
20260506015505 70 345 0.9 2.6 0.00 0.00 0.00 53 1012.1
20260506015005 70 144 1.7 2.6 0.00 0.00 0.00 52 1012.1
20260506014505 70 107 1.7 5.2 0.00 0.00 0.00 52 1012.1
20260506014005 70 126 1.7 2.6 0.00 0.00 0.00 52 1012.1
20260506013505 70 127 0.0 1.7 0.00 0.00 0.00 53 1012.1
20260506013005 71 133 0.9 2.6 0.00 0.00 0.00 52 1012.1
20260506011505 71 185 1.7 4.3 0.00 0.00 0.00 52 1012.1
20260506011005 71 150 0.9 2.6 0.00 0.00 0.00 52 1012.1
20260506010505 71 141 0.9 2.6 0.00 0.00 0.00 52 1012.1
20260506010006 72 152 0.9 1.7 0.00 0.00 0.00 52 1012.1
20260506005505 72 138 0.9 2.6 0.00 0.00 0.00 51 1012.1
20260506005006 72 124 0.9 2.6 0.00 0.00 0.00 51 1012.1
20260506004505 72 138 0.9 2.6 0.00 0.00 0.00 50 1012.1
20260506004005 72 144 1.7 6.1 0.00 0.00 0.00 50 1012.1
20260506003505 72 137 0.9 2.6 0.00 0.00 0.00 49 1012.1
20260506003005 73 153 0.9 2.6 0.00 0.00 0.00 49 1012.1
20260506001505 73 167 0.9 1.7 0.00 0.00 0.00 48 1012.1
20260506001005 73 92 0.0 0.9 0.00 0.00 0.00 47 1012.1
20260506000505 73 129 0.0 0.9 0.00 0.00 0.00 46 1012.1
20260506000005 74 94 0.0 1.7 0.00 0.00 0.00 46 1012.1
20260505235504 74 81 0.0 1.7 0.00 0.00 0.00 46 1012.1
20260505235005 74 150 0.0 1.7 0.00 0.00 0.00 46 1012.1
20260505234505 74 157 0.0 2.6 0.00 0.00 0.00 45 1012.1
20260505234005 74 149 0.9 4.3 0.00 0.00 0.00 45 1012.1
20260505232505 75 115 1.7 4.3 0.00 0.00 0.00 43 1012.1
20260505232006 75 182 1.7 6.1 0.00 0.00 0.00 42 1012.1
20260505231504 75 241 0.9 2.6 0.00 0.00 0.00 42 1012.1
20260505230005 76 340 0.9 4.3 0.00 0.00 0.00 41 1012.1
20260505225506 76 296 1.7 4.3 0.00 0.00 0.00 41 1012.1
20260505225005 76 185 1.7 4.3 0.00 0.00 0.00 40 1012.1
20260505224505 76 138 2.6 6.1 0.00 0.00 0.00 39 1012.1
20260505224006 77 30 1.7 4.3 0.00 0.00 0.00 38 1012.0
20260505223505 77 106 1.7 6.1 0.00 0.00 0.00 37 1012.0
20260505223005 77 141 2.6 6.1 0.00 0.00 0.00 38 1012.0
20260505222505 78 50 2.6 6.1 0.00 0.00 0.00 38 1012.0
20260505222006 78 75 1.7 6.1 0.00 0.00 0.00 38 1012.0
20260505221505 78 168 1.7 6.1 0.00 0.00 0.00 38 1012.0
20260505220505 78 116 1.7 7.8 0.00 0.00 0.00 37 1012.0
20260505215505 77 50 2.6 8.7 0.00 0.00 0.00 35 1012.0
20260505215005 78 142 1.7 8.7 0.00 0.00 0.00 38 1012.0
20260505214504 78 174 1.7 6.1 0.00 0.00 0.00 38 1012.0
20260505214005 78 117 1.7 7.0 0.00 0.00 0.00 36 1012.0
20260505213505 79 136 2.6 7.0 0.00 0.00 0.00 37 1012.0
20260505213005 79 162 0.9 2.6 0.00 0.00 0.00 38 1012.5
20260505212504 79 131 1.7 7.0 0.00 0.00 0.00 38 1012.5
20260505212005 79 128 1.7 5.2 0.00 0.00 0.00 38 1012.5
20260505211505 79 136 0.9 5.2 0.00 0.00 0.00 40 1012.5
20260505211006 79 132 1.7 7.0 0.00 0.00 0.00 38 1012.5
20260505210006 79 112 0.9 4.3 0.00 0.00 0.00 37 1012.5
20260505205505 79 255 1.7 2.6 0.00 0.00 0.00 38 1012.5
20260505205005 79 172 1.7 7.0 0.00 0.00 0.00 37 1012.5
20260505204505 79 163 2.6 7.0 0.00 0.00 0.00 37 1012.5
20260505203505 79 77 0.9 2.6 0.00 0.00 0.00 37 1013.0
20260505203005 80 290 1.7 6.1 0.00 0.00 0.00 36 1013.0
20260505202504 80 111 1.7 7.0 0.00 0.00 0.00 38 1013.0
20260505202005 80 296 1.7 6.1 0.00 0.00 0.00 37 1013.0
20260505201505 80 79 1.7 7.8 0.00 0.00 0.00 36 1013.0
20260505201004 80 81 1.7 4.3 0.00 0.00 0.00 37 1013.2
20260505200505 80 272 1.7 5.2 0.00 0.00 0.00 38 1013.2
20260505200005 80 157 0.9 2.6 0.00 0.00 0.00 40 1013.2
20260505195504 80 350 1.7 6.1 0.00 0.00 0.00 38 1013.2
20260505195006 80 292 1.7 7.0 0.00 0.00 0.00 37 1013.2
20260505194005 81 157 1.7 7.0 0.00 0.00 0.00 39 1014.9
20260505193506 80 246 0.9 2.6 0.00 0.00 0.00 40 1014.9
20260505193005 79 116 1.7 7.0 0.00 0.00 0.00 40 1014.9
20260505192506 79 138 1.7 6.1 0.00 0.00 0.00 38 1014.9
20260505190505 79 214 1.7 6.1 0.00 0.00 0.00 40 1014.9
20260505190006 79 251 2.6 6.1 0.00 0.00 0.00 41 1014.9
20260505185005 79 93 1.7 4.3 0.00 0.00 0.00 39 1014.9
20260505184505 78 310 1.7 6.1 0.00 0.00 0.00 39 1014.9
20260505183505 78 83 0.9 2.6 0.00 0.00 0.00 42 1014.9
20260505183006 77 121 1.7 4.3 0.00 0.00 0.00 41 1014.9
20260505182504 78 81 1.7 4.3 0.00 0.00 0.00 40 1014.9
20260505182006 78 241 0.9 7.0 0.00 0.00 0.00 40 1014.9
20260505181006 78 358 0.9 6.1 0.00 0.00 0.00 43 1014.9
20260505180505 78 210 0.9 6.1 0.00 0.00 0.00 40 1014.9
20260505180006 77 123 1.7 7.0 0.00 0.00 0.00 41 1014.9
20260505175505 78 294 1.7 5.2 0.00 0.00 0.00 40 1014.9
20260505175005 78 66 1.7 2.6 0.00 0.00 0.00 41 1014.9
20260505174505 78 349 0.9 2.6 0.00 0.00 0.00 41 1014.9
20260505174006 77 174 1.7 2.6 0.00 0.00 0.00 41 1014.9
20260505173505 78 234 1.7 6.1 0.00 0.00 0.00 41 1014.9
20260505173005 78 184 2.6 7.0 0.00 0.00 0.00 40 1014.9
20260505172506 78 284 1.7 6.1 0.00 0.00 0.00 43 1014.9
20260505172006 78 319 1.7 4.3 0.00 0.00 0.00 42 1014.9
20260505171006 77 99 1.7 6.1 0.00 0.00 0.00 43 1014.9
20260505170506 77 263 1.7 4.3 0.00 0.00 0.00 45 1014.9
20260505170005 77 72 2.6 5.2 0.00 0.00 0.00 44 1015.0
20260505165505 76 80 1.7 6.1 0.00 0.00 0.00 44 1015.0
20260505165005 76 291 2.6 6.1 0.00 0.00 0.00 44 1015.0
20260505164506 76 67 2.6 7.0 0.00 0.00 0.00 42 1015.0
20260505164006 76 136 2.6 7.0 0.00 0.00 0.00 43 1015.0
20260505163505 76 101 2.6 7.0 0.00 0.00 0.00 44 1015.0
20260505163007 76 47 2.6 5.2 0.00 0.00 0.00 45 1015.0
20260505162006 75 24 1.7 6.1 0.00 0.00 0.00 44 1015.0
20260505161505 75 23 1.7 7.0 0.00 0.00 0.00 44 1015.0
20260505161005 76 171 4.3 10.4 0.00 0.00 0.00 44 1015.0